{"data":{"norad_id":64678,"epoch":"2026-05-25T03:13:39.333792Z","epoch_age_seconds":59428,"freshness":"FRESH","line1":"1 64678U 25139Q   26145.13448303  .00016219  00000+0  55834-3 0  9991","line2":"2 64678  53.1568 132.2743 0001170  85.0254 275.0880 15.30211157 51985","mean_motion":15.30211157,"eccentricity":0.000117,"inclination_deg":53.1568,"raan_deg":132.2743,"arg_perigee_deg":85.0254,"mean_anomaly_deg":275.088,"bstar":0.00055834,"rev_number":5198,"period_min":94.104659570196,"perigee_km":474.37991853624,"apogee_km":475.98359512534,"semimajor_km":6853.3187568308,"source":"CELESTRAK","updated_at":"2026-05-25T13:38:20.505705Z"}}